Regional Weather Roundup
Issued by NWS

Home | Current Version | Previous Version | Graphics & Text | Print | Product List | Glossary On
Versions: 1 2 3 4 5 6 7 8 9 10 11 12 13 14 15 16 17 18 19 20 21 22 23 24 25 26 27 28 29 30 31 32 33 34 35 36 37 38 39 40 41 42 43 44 45 46 47 48 49 50
169
ASUS44 KLIX 192001
RWRLA
LOUISIANA WEATHER ROUNDUP
NATIONAL WEATHER SERVICE NEW ORLEANS LA
300 PM CDT SAT APR 19 2014

NOTE: "FAIR" INDICATES FEW OR NO CLOUDS BELOW 12,000 FEET WITH NO
      SIGNIFICANT WEATHER AND/OR OBSTRUCTIONS TO VISIBILITY.
      SKY/WX - SKY CONDITION AND SIGNIFICANT WEATHER.
      TMP - AIR TEMPERATURE.    DP   - DEWPOINT TEMPERATURE.
      RH  - RELATIVE HUMIDITY.  PRES - PRESSURE.
      HX  - HEAT INDEX.         WCI  - WIND CHILL INDEX.

*  THESE STATIONS ARE NOT NWS OR FAA STATIONS AND ARE NOT UNDER
   NWS QUALITY CONTROL.

LAZ040-048-061>063-065-066-069-192100-
SOUTHEAST LOUISIANA

CITY           SKY/WX    TMP DP  RH WIND       PRES   REMARKS
N.O. AUDUBON     N/A     77  53  42 MISG        N/A
N.O. INTL ARPT MOSUNNY   75  53  46 NW9       30.12F
N.O. LAKEFRONT SUNNY     71  57  61 W13       30.12F
N.O. DOWNTOWN* FAIR      75  48  38 N8        30.12F
SLIDELL        SUNNY     78  50  37 NW9       30.09F
BATON ROUGE    SUNNY     80  52  37 VRB7      30.12F
BOOTHVILLE     SUNNY     68  53  58 NW8       30.12F
BELLE CHASSE   MOSUNNY   76  47  35 N9G16     30.10F
BOGALUSA*        N/A     79  49  35 N14       30.12F
GALLIANO*      NOT AVBL
NEW ROADS*     NOT AVBL
GONZALES*      FAIR      77  50  38 N6        30.11F
HAMMOND*       NOT AVBL
HOUMA*         SUNNY     79  46  31 N12       30.12F
PORT FOURCHON* CLEAR     72  54  53 NE8       30.14F

$$

LAZ041-044-053-054-192100-
SOUTHWEST LOUISIANA

CITY           SKY/WX    TMP DP  RH WIND       PRES   REMARKS
LAKE CHARLES   MOSUNNY   79  53  40 VRB3      30.14F
LAFAYETTE      SUNNY     78  53  41 NE7       30.13F
PATTERSON      SUNNY     77  54  44 NE10      30.16F
SALT POINT       N/A     75  61  61 SW7       30.12F
NEW IBERIA     SUNNY     79  52  38 NE3       30.13F
CHENAULT AIRPK NOT AVBL

$$

LAZ027-028-192100-
CENTRAL LOUISIANA

CITY           SKY/WX    TMP DP  RH WIND       PRES   REMARKS
FORT POLK      CLOUDY    76  52  43 VRB3      30.15F
ALEXANDRIA INT MOSUNNY   79  54  41 VRB3      30.14F
ALEXANDRIA     MOSUNNY   80  46  30 CALM      30.15F

$$

LAZ001-002-192100-
NORTHWEST LOUISIANA

CITY           SKY/WX    TMP DP  RH WIND       PRES   REMARKS
SHREVEPORT     MOSUNNY   77  51  40 SE10G18   30.15F
BARKSDALE AFB  MOSUNNY   76  54  44 VRB1      30.16F
DTN SHREVEPORT CLOUDY    74  53  48 E5        30.16F

$$

LAZ014-016-192100-
NORTHEAST LOUISIANA

CITY           SKY/WX    TMP DP  RH WIND       PRES   REMARKS
MONROE         SUNNY     76  49  38 W3        30.17F
TALLULAH       SUNNY     77  52  41 N8        30.15F

$$




USA.gov is the U.S. government's official web portal to all federal, state and local government web resources and services.